Temp
-15 -15 -15 -15 -15 -14 -14 -14 -14 -14 -14 -14 -13 -13 -13 -13 -13 -13 -13 -13 -13 -13 -13 -13 -13 -13 -12 -12 -12 -12 -12 -12 -12 -12 -12 -12 -12 -12 -12 -12 -12 -12
-15 -15 -15 -15 -15 -15 -15 -14 -14 -14 -14 -14 -14 -13 -13 -13 -13 -13 -13 -13 -13 -13 -13 -13 -13 -13 -13 -12 -12 -12 -12 -12 -12 -12 -12 -12 -12 -12 -12 -12 -12 -12
-15 -15 -15 -15 -15 -15 -15 -15 -15 -14 -14 -14 -14 -14 -14 -14 -14 -13 -13 -13 -13 -13 -13 -13 -13 -13 -13 -13 -13 -13 -12 -12 -12 -12 -12 -12 -12 -12 -12 -12 -12 -12
-16 -15 -15 -15 -15 -15 -15 -15 -15 -15 -15 -15 -14 -14 -14 -14 -14 -14 -14 -14 -14 -13 -13 -13 -13 -13 -13 -13 -13 -13 -13 -13 -13 -12 -12 -12 -12 -12 -12 -12 -12 -12
-16 -16 -16 -16 -16 -16 -15 -15 -15 -15 -15 -15 -15 -15 -15 -14 -14 -14 -14 -14 -14 -14 -14 -13 -13 -13 -13 -13 -13 -13 -13 -13 -13 -13 -13 -13 -13 -12 -12 -12 -12 -12
-16 -16 -16 -16 -16 -16 -16 -16 -16 -16 -16 -15 -15 -15 -15 -15 -15 -15 -14 -14 -14 -14 -14 -14 -13 -13 -13 -13 -13 -13 -13 -13 -13 -13 -13 -13 -13 -13 -13 -13 -12 -12
-17 -17 -17 -16 -16 -16 -16 -16 -16 -16 -16 -16 -16 -16 -16 -15 -15 -15 -15 -15 -14 -14 -14 -14 -14 -14 -13 -13 -13 -14 -14 -14 -14 -13 -13 -14 -13 -13 -13 -13 -13 -13
-17 -17 -17 -17 -17 -17 -17 -17 -17 -17 -16 -16 -16 -16 -16 -16 -16 -15 -15 -15 -15 -15 -14 -14 -14 -14 -14 -14 -14 -14 -14 -14 -14 -14 -14 -14 -14 -14 -14 -13 -13 -13
-18 -18 -18 -17 -17 -17 -17 -17 -17 -17 -17 -17 -17 -17 -16 -16 -16 -16 -16 -16 -16 -15 -15 -15 -15 -15 -14 -14 -14 -14 -14 -15 -15 -14 -14 -14 -14 -14 -14 -14 -14 -14
-18 -18 -18 -18 -18 -18 -17 -17 -17 -17 -17 -17 -17 -17 -17 -17 -17 -16 -16 -16 -16 -16 -16 -16 -16 -15 -15 -15 -15 -15 -15 -15 -15 -15 -15 -14 -14 -14 -14 -14 -14 -14
-18 -18 -18 -18 -18 -18 -18 -18 -18 -18 -18 -17 -17 -17 -17 -17 -17 -17 -17 -17 -17 -17 -17 -17 -17 -16 -16 -16 -16 -16 -16 -15 -15 -15 -15 -15 -15 -15 -15 -15 -14 -14
-18 -18 -18 -18 -18 -18 -18 -18 -18 -18 -18 -18 -18 -18 -18 -18 -18 -18 -18 -18 -18 -18 -18 -17 -17 -17 -17 -17 -17 -17 -16 -16 -16 -16 -16 -15 -15 -15 -15 -15 -15 -15
-18 -18 -18 -18 -18 -18 -18 -18 -18 -18 -18 -18 -18 -18 -18 -18 -18 -18 -18 -18 -18 -18 -18 -18 -18 -18 -18 -18 -18 -17 -17 -17 -16 -16 -16 -16 -16 -16 -15 -15 -15 -15
-19 -19 -19 -19 -19 -18 -18 -18 -18 -18 -19 -19 -19 -19 -19 -19 -19 -19 -18 -18 -18 -18 -18 -18 -18 -18 -18 -18 -18 -18 -18 -17 -17 -17 -16 -16 -16 -16 -16 -16 -15 -15
-19 -19 -19 -19 -19 -19 -19 -19 -19 -19 -19 -19 -19 -19 -19 -19 -19 -19 -18 -18 -19 -19 -19 -19 -19 -19 -19 -19 -18 -18 -18 -18 -18 -17 -17 -17 -17 -16 -16 -16 -16 -16
-19 -19 -19 -19 -19 -19 -19 -19 -19 -19 -19 -19 -19 -19 -19 -19 -19 -19 -19 -19 -19 -19 -19 -19 -19 -19 -19 -19 -19 -19 -19 -18 -18 -18 -18 -17 -17 -17 -17 -17 -16 -16
-19 -19 -19 -19 -19 -19 -19 -19 -19 -19 -19 -19 -19 -19 -19 -19 -19 -19 -19 -19 -19 -19 -19 -19 -19 -19 -19 -19 -19 -19 -19 -19 -19 -19 -18 -18 -18 -18 -17 -17 -17 -17
-19 -19 -19 -19 -19 -19 -19 -19 -19 -19 -19 -19 -19 -19 -19 -19 -19 -19 -19 -19 -19 -19 -19 -19 -19 -20 -20 -20 -20 -19 -19 -19 -19 -19 -19 -19 -18 -18 -18 -18 -18 -17
-20 -20 -20 -20 -19 -19 -19 -19 -19 -19 -19 -19 -19 -19 -19 -19 -19 -19 -19 -19 -19 -19 -19 -19 -20 -20 -20 -20 -20 -20 -19 -19 -19 -19 -19 -19 -19 -19 -18 -18 -18 -18
-20 -20 -20 -20 -20 -19 -19 -19 -19 -19 -19 -19 -19 -19 -19 -19 -19 -19 -19 -19 -19 -19 -20 -20 -20 -20 -20 -20 -20 -20 -20 -19 -19 -19 -19 -19 -19 -19 -19 -19 -18 -18
-20 -20 -20 -20 -20 -20 -20 -20 -19 -19 -19 -19 -19 -19 -19 -19 -19 -19 -19 -19 -19 -20 -20 -20 -20 -20 -20 -20 -20 -20 -20 -20 -19 -19 -19 -19 -19 -19 -19 -19 -19 -19
-20 -20 -20 -20 -20 -20 -20 -20 -20 -20 -19 -19 -19 -19 -19 -19 -19 -19 -19 -19 -20 -20 -20 -20 -20 -20 -20 -20 -20 -20 -20 -20 -19 -19 -19 -19 -19 -19 -19 -19 -19 -19
-21 -21 -21 -20 -20 -20 -20 -20 -20 -20 -19 -19 -19 -19 -19 -19 -19 -19 -19 -20 -20 -20 -20 -20 -20 -20 -20 -20 -20 -20 -20 -20 -19 -19 -19 -19 -19 -19 -19 -19 -19 -19
-21 -21 -21 -21 -20 -20 -20 -20 -20 -20 -20 -19 -19 -19 -19 -19 -19 -19 -19 -20 -20 -20 -20 -20 -20 -20 -20 -20 -20 -20 -20 -20 -20 -20 -20 -19 -19 -19 -19 -19 -19 -19
-21 -21 -21 -21 -20 -20 -20 -20 -20 -20 -20 -20 -19 -19 -19 -19 -19 -19 -20 -20 -20 -20 -20 -20 -20 -20 -20 -20 -20 -20 -20 -20 -20 -20 -20 -20 -20 -19 -19 -19 -19 -19
-21 -21 -21 -20 -20 -20 -20 -20 -20 -20 -20 -20 -20 -20 -20 -20 -19 -20 -20 -20 -20 -20 -20 -20 -20 -21 -21 -21 -20 -20 -20 -20 -20 -20 -20 -19 -19 -19 -19 -19 -19 -19
Height
5737 5738 5739 5739 5740 5741 5742 5742 5743 5744 5745 5745 5746 5747 5747 5748 5748 5748 5748 5748 5749 5749 5750 5750 5751 5751 5752 5752 5753 5754 5754 5754 5754 5755 5755 5756 5757 5757 5758 5759 5759 5760
5734 5734 5735 5735 5736 5737 5737 5738 5739 5740 5740 5741 5742 5742 5743 5743 5744 5744 5744 5744 5744 5745 5745 5745 5746 5746 5747 5748 5748 5748 5749 5749 5749 5749 5750 5751 5751 5752 5752 5753 5754 5755
5730 5730 5731 5731 5732 5733 5733 5733 5734 5735 5735 5736 5737 5737 5738 5738 5738 5739 5739 5739 5739 5739 5740 5740 5741 5741 5742 5742 5743 5743 5743 5743 5743 5744 5745 5745 5745 5745 5746 5747 5748 5748
5725 5726 5726 5727 5727 5728 5728 5729 5729 5730 5730 5731 5732 5732 5732 5733 5733 5733 5734 5734 5734 5734 5734 5734 5735 5735 5736 5736 5737 5737 5738 5738 5738 5738 5739 5739 5739 5739 5740 5740 5742 5742
5721 5721 5722 5722 5723 5723 5723 5724 5724 5725 5725 5726 5726 5726 5727 5727 5728 5728 5728 5728 5728 5728 5728 5728 5729 5729 5729 5730 5730 5730 5731 5731 5732 5733 5733 5733 5732 5733 5734 5734 5735 5736
5716 5716 5717 5717 5718 5718 5718 5719 5719 5719 5720 5720 5720 5721 5721 5721 5722 5722 5722 5722 5722 5722 5722 5722 5722 5723 5723 5723 5724 5723 5723 5724 5725 5726 5727 5727 5726 5727 5727 5728 5729 5729
5711 5711 5712 5712 5713 5713 5713 5714 5714 5714 5714 5714 5715 5715 5715 5715 5715 5716 5716 5716 5716 5716 5716 5716 5716 5716 5716 5717 5717 5717 5717 5717 5717 5719 5720 5721 5721 5721 5720 5721 5722 5723
5706 5707 5707 5707 5707 5708 5708 5708 5708 5709 5709 5709 5709 5709 5709 5709 5709 5709 5709 5709 5709 5709 5709 5709 5709 5709 5709 5709 5710 5710 5710 5710 5710 5711 5712 5713 5714 5715 5714 5714 5715 5716
5702 5702 5702 5703 5703 5703 5703 5703 5703 5703 5703 5703 5703 5703 5703 5703 5703 5703 5703 5703 5702 5702 5702 5702 5702 5702 5702 5702 5702 5702 5703 5703 5703 5703 5704 5705 5706 5707 5708 5708 5709 5709
5698 5698 5698 5698 5698 5698 5698 5698 5698 5698 5698 5697 5697 5696 5696 5696 5696 5696 5696 5696 5696 5695 5695 5694 5694 5694 5694 5694 5694 5694 5695 5695 5696 5696 5697 5697 5698 5699 5700 5701 5702 5702
5693 5693 5693 5693 5693 5693 5693 5693 5693 5693 5692 5692 5691 5690 5690 5690 5690 5689 5689 5689 5689 5688 5688 5687 5686 5686 5686 5686 5686 5686 5686 5687 5688 5689 5689 5689 5690 5691 5692 5693 5694 5695
5688 5688 5688 5688 5688 5688 5688 5688 5688 5687 5687 5686 5685 5685 5684 5684 5684 5683 5683 5683 5682 5681 5681 5680 5680 5679 5679 5678 5678 5677 5678 5679 5680 5681 5681 5682 5682 5683 5683 5685 5686 5687
5683 5683 5683 5682 5682 5682 5682 5682 5682 5682 5681 5680 5680 5679 5679 5678 5678 5678 5677 5676 5676 5675 5674 5673 5672 5672 5672 5671 5670 5670 5670 5670 5671 5672 5673 5674 5674 5675 5675 5676 5678 5679
5677 5677 5677 5677 5677 5677 5677 5677 5676 5676 5675 5675 5674 5674 5673 5673 5672 5672 5671 5670 5668 5667 5666 5665 5665 5664 5664 5663 5663 5662 5662 5662 5662 5663 5664 5665 5666 5667 5667 5668 5669 5670
5671 5671 5671 5671 5671 5671 5671 5671 5671 5670 5670 5669 5669 5669 5668 5667 5667 5666 5664 5663 5661 5660 5659 5658 5657 5656 5655 5655 5654 5654 5654 5654 5654 5654 5655 5656 5657 5658 5659 5659 5660 5661
5665 5665 5666 5665 5665 5665 5665 5665 5665 5665 5665 5664 5664 5663 5663 5662 5662 5660 5658 5656 5655 5653 5652 5650 5649 5648 5647 5647 5646 5646 5646 5645 5645 5646 5646 5647 5648 5649 5650 5651 5651 5652
5658 5659 5659 5659 5659 5659 5659 5659 5659 5659 5659 5659 5658 5658 5657 5657 5656 5654 5652 5650 5648 5647 5645 5643 5642 5641 5639 5639 5638 5637 5637 5637 5637 5637 5637 5638 5638 5639 5641 5642 5643 5643
5652 5653 5653 5653 5653 5654 5654 5653 5653 5653 5653 5653 5652 5652 5651 5651 5649 5647 5645 5643 5641 5640 5638 5636 5635 5633 5632 5631 5630 5629 5628 5628 5628 5629 5629 5629 5629 5630 5631 5632 5633 5634
5646 5647 5647 5647 5647 5647 5648 5647 5647 5647 5647 5647 5646 5646 5646 5644 5642 5640 5638 5635 5634 5632 5631 5629 5627 5626 5624 5623 5622 5621 5620 5619 5619 5620 5620 5621 5621 5621 5622 5623 5624 5625
5640 5641 5640 5641 5641 5641 5641 5641 5641 5641 5641 5641 5640 5640 5639 5638 5635 5633 5631 5629 5627 5625 5623 5622 5620 5618 5616 5615 5614 5612 5611 5611 5610 5611 5611 5612 5612 5612 5612 5613 5614 5614
5634 5634 5633 5634 5634 5635 5635 5635 5635 5635 5635 5635 5634 5634 5633 5631 5628 5626 5624 5622 5620 5617 5616 5614 5612 5610 5609 5607 5606 5604 5603 5602 5601 5602 5602 5602 5603 5603 5603 5604 5604 5604
5627 5627 5627 5627 5628 5628 5629 5629 5629 5629 5629 5629 5628 5627 5625 5623 5621 5619 5617 5615 5612 5610 5608 5607 5605 5603 5601 5599 5597 5596 5594 5593 5592 5592 5593 5593 5593 5593 5593 5594 5594 5594
5621 5621 5620 5621 5622 5622 5623 5623 5623 5623 5623 5623 5621 5619 5617 5616 5614 5612 5610 5607 5605 5603 5601 5599 5597 5595 5592 5590 5588 5586 5585 5584 5583 5583 5583 5583 5583 5583 5583 5584 5584 5584
5614 5614 5614 5615 5616 5617 5617 5618 5618 5617 5617 5616 5614 5612 5610 5608 5607 5604 5602 5600 5597 5595 5593 5591 5589 5586 5584 5581 5580 5577 5576 5575 5574 5573 5573 5573 5573 5574 5574 5574 5574 5574
5608 5608 5609 5610 5611 5612 5612 5612 5612 5611 5610 5608 5606 5604 5603 5601 5599 5597 5594 5592 5589 5587 5584 5582 5580 5578 5575 5573 5571 5569 5567 5566 5565 5564 5563 5563 5563 5564 5564 5564 5564 5564
5602 5604 5605 5605 5606 5606 5607 5606 5606 5605 5603 5601 5599 5597 5596 5594 5591 5589 5587 5584 5581 5579 5576 5574 5572 5570 5568 5565 5563 5561 5559 5557 5555 5554 5554 5553 5554 5554 5554 5554 5554 5554
Wind_Speed
26 26 27 27 28 28 28 29 29 29 30 30 31 31 31 31 31 31 31 31 32 32 32 33 33 34 34 35 36 36 37 38 40 40 41 42 43 43 44 44 45 46
27 27 28 29 29 29 30 31 31 31 31 32 32 32 33 33 33 34 34 35 35 35 34 34 35 35 35 36 37 38 38 39 40 41 42 43 44 45 46 46 47 47
28 29 29 30 30 30 31 32 32 32 32 33 33 33 34 34 34 35 35 36 37 37 37 37 37 37 37 37 37 38 39 40 41 42 43 44 45 46 47 48 48 49
31 31 31 31 31 31 32 32 33 33 34 34 34 35 35 35 36 36 37 38 38 39 39 39 39 39 39 39 39 39 39 40 41 43 44 45 46 47 48 49 50 51
33 33 33 33 33 33 33 34 35 35 35 36 36 37 37 38 38 38 39 40 40 40 41 41 41 41 41 41 41 41 41 41 42 43 44 46 47 48 49 50 51 52
34 34 34 35 35 35 36 36 36 36 37 37 38 38 39 39 39 40 41 41 42 42 43 43 44 44 44 43 43 43 43 43 43 43 44 46 48 49 50 51 52 53
34 34 34 35 35 36 36 36 37 37 38 38 39 39 40 40 41 41 42 43 44 44 45 46 46 46 47 46 46 45 45 46 46 45 45 45 47 49 51 52 52 53
32 32 32 33 34 35 35 36 37 38 38 39 40 41 42 42 43 43 44 45 45 46 47 47 48 48 49 49 49 48 47 47 48 48 47 47 47 48 50 52 53 53
30 31 32 32 34 34 36 37 38 39 40 41 42 42 43 44 45 45 46 46 47 47 48 48 49 49 50 50 50 50 49 48 49 49 49 49 49 48 50 52 53 54
31 32 33 33 34 35 37 38 39 40 41 42 43 43 44 45 46 46 47 47 47 48 48 49 49 49 50 50 51 51 50 50 49 50 50 51 51 50 50 51 53 54
32 33 33 35 36 37 38 39 39 40 41 42 43 44 45 45 46 46 46 46 47 47 48 48 49 49 50 50 51 51 51 51 50 50 51 52 52 52 52 52 53 54
33 33 35 36 37 38 39 39 39 39 40 41 42 43 44 44 45 45 45 45 46 46 47 48 49 49 49 50 50 51 52 52 51 51 51 52 52 53 53 53 54 55
36 35 36 37 38 38 39 39 39 40 40 40 41 42 43 43 44 44 45 45 46 47 48 49 49 49 50 50 50 51 52 53 53 52 52 52 53 53 54 54 54 55
37 37 37 37 38 38 39 39 39 40 40 40 41 41 42 42 43 43 44 45 47 48 49 50 50 51 51 51 51 52 53 53 54 54 53 53 53 53 54 55 56 56
39 38 38 38 38 38 38 39 39 39 39 40 40 41 41 41 41 42 43 44 46 47 48 49 49 50 51 51 52 52 53 54 55 55 55 55 55 54 54 55 56 57
43 41 39 39 38 38 38 38 38 38 39 40 41 41 41 40 41 42 44 45 46 46 47 47 48 48 49 50 51 51 52 54 54 55 56 56 56 56 56 56 56 57
45 42 39 39 38 38 38 38 38 39 39 40 41 41 41 40 41 42 44 46 47 47 47 48 48 49 49 50 50 51 52 53 53 54 55 56 56 57 57 57 57 57
42 40 38 38 38 38 38 38 38 39 39 40 41 41 40 40 42 44 46 47 48 49 49 49 49 50 51 51 51 52 53 53 53 54 54 55 56 56 57 57 57 58
39 38 38 38 38 39 39 39 39 39 40 41 41 40 40 41 44 47 49 50 49 49 50 50 50 50 51 52 52 53 54 54 55 55 54 55 55 56 56 57 57 57
37 37 38 38 39 40 39 39 39 40 41 41 41 40 40 43 46 48 50 51 50 50 50 50 51 51 51 52 53 53 54 55 56 56 55 55 56 56 57 57 57 58
35 36 38 39 40 40 40 40 40 41 41 41 40 40 42 45 48 50 52 52 51 51 51 51 51 51 51 52 52 53 54 55 56 56 56 56 56 57 57 58 58 59
34 36 39 40 41 42 42 41 42 42 42 41 41 42 44 47 49 51 53 53 52 51 51 51 51 51 52 52 53 54 54 55 56 56 57 57 57 57 58 59 59 60
35 39 41 41 42 43 42 42 42 42 42 42 43 44 47 49 51 53 55 55 53 52 51 51 51 52 53 54 54 54 54 54 55 55 56 56 57 57 58 59 60 61
36 39 41 42 43 43 43 43 43 43 43 43 45 47 49 51 53 55 57 56 53 52 52 52 52 53 53 53 53 53 53 53 53 54 55 55 56 56 57 58 59 60
40 39 40 42 43 43 43 43 43 43 43 45 47 50 52 53 55 58 58 56 53 52 53 53 53 53 52 52 51 51 52 53 53 54 54 54 55 55 55 56 58 59
42 40 41 41 42 43 43 43 43 44 45 47 49 51 53 56 58 59 57 54 53 54 54 54 52 51 51 51 52 53 54 54 55 55 54 54 54 54 54 54 56 57
Wind_Direction
256 257 258 257 256 255 254 253 252 251 250 249 248 247 248 249 251 252 254 256 257 258 259 260 261 261 261 261 261 260 259 259 260 260 259 259 259 260 260 260 260 260
256 257 258 259 259 259 259 258 257 257 257 256 255 254 253 253 254 255 256 257 258 259 260 260 260 261 261 260 261 261 261 260 259 259 259 259 258 258 258 259 259 259
259 259 259 260 261 262 263 264 263 263 263 263 263 262 262 261 261 261 261 261 261 262 262 262 262 262 262 261 261 261 261 261 261 260 260 259 258 258 258 257 257 258
262 262 261 262 263 264 265 266 267 267 267 268 268 268 268 267 267 267 266 265 265 265 265 265 265 265 265 264 263 262 260 260 260 260 260 260 259 258 257 257 257 257
264 264 264 264 265 266 267 268 270 271 270 271 271 270 270 270 269 269 269 268 268 268 267 267 268 268 268 268 268 266 264 261 259 259 259 259 259 259 258 257 257 257
267 267 267 267 267 268 269 271 272 273 274 274 273 272 272 272 271 270 270 270 270 270 269 269 269 269 269 270 270 270 269 266 263 260 258 257 257 258 258 257 257 257
270 270 270 271 271 271 273 274 275 276 276 277 276 276 275 274 274 273 271 271 271 270 270 270 270 270 270 270 271 270 270 269 267 264 261 257 255 256 257 257 257 257
272 272 273 273 274 275 276 276 277 279 279 280 280 279 278 277 276 275 274 273 273 272 271 271 271 271 270 270 270 270 269 269 268 267 265 260 256 255 254 255 256 256
273 273 274 274 275 276 277 278 279 281 281 282 282 281 279 278 277 276 275 275 274 274 273 272 271 271 270 270 270 269 268 267 267 266 266 264 260 256 254 253 255 255
272 273 273 274 275 277 278 280 282 283 284 283 282 281 280 279 278 277 276 275 275 274 274 273 273 272 271 270 269 269 268 267 266 265 265 264 262 260 256 254 253 253
270 272 274 275 277 279 281 283 284 284 283 282 281 281 280 279 279 278 278 277 276 276 275 274 274 273 273 272 270 269 268 267 266 265 264 263 262 261 258 256 253 252
270 272 274 277 280 282 283 284 284 283 282 281 280 280 279 279 279 279 279 279 278 278 277 275 275 274 273 273 273 271 270 268 267 265 264 263 262 261 259 257 255 253
269 271 274 278 280 282 282 282 282 282 281 280 280 280 280 280 281 281 282 281 281 279 278 276 275 274 273 272 272 272 271 270 268 266 264 263 262 261 260 259 256 254
267 271 274 276 277 278 279 280 280 281 281 280 281 281 282 282 284 285 285 284 282 280 278 277 275 274 273 271 270 270 270 269 269 267 266 264 262 261 260 259 258 256
266 271 272 271 272 273 275 277 278 279 280 280 281 282 282 284 286 288 288 286 284 281 279 278 276 275 274 272 271 270 269 268 268 267 266 265 264 262 261 259 258 257
266 269 268 267 269 270 272 274 276 277 278 280 281 282 281 283 287 290 290 288 286 284 282 280 279 277 276 275 273 272 271 269 268 268 267 266 265 263 262 261 259 258
264 265 264 264 266 268 269 272 274 276 277 279 281 282 281 283 289 293 293 290 287 285 283 281 279 278 277 276 275 273 272 271 270 269 268 267 266 265 263 262 260 259
261 261 261 262 264 265 267 270 273 274 276 279 281 281 281 286 293 297 296 294 289 285 283 281 279 277 276 275 275 274 272 271 270 269 268 267 266 265 264 263 261 260
258 259 261 263 264 265 267 269 271 273 276 280 281 280 282 290 296 298 297 295 291 287 284 282 279 277 276 275 274 273 272 271 270 269 268 266 265 264 264 263 262 260
257 260 262 264 265 266 267 269 271 273 276 280 281 281 286 293 296 297 297 296 292 288 284 282 280 278 277 276 275 274 273 272 270 269 268 267 265 264 263 262 261 260
258 263 264 266 267 266 268 269 271 273 277 280 282 284 288 292 294 296 297 296 292 288 285 282 281 280 279 278 277 276 274 273 271 270 269 268 267 265 264 262 261 260
262 265 264 265 266 267 268 269 271 274 277 280 283 286 289 291 293 295 297 295 291 287 285 283 282 282 281 280 279 277 276 274 273 271 270 269 267 266 265 263 262 260
268 265 263 264 265 266 268 269 272 275 277 280 284 286 288 290 292 295 296 294 289 286 284 283 283 283 282 281 280 278 277 275 273 272 270 269 268 267 265 264 263 261
271 265 263 265 266 267 269 271 274 276 277 281 283 285 288 290 292 295 296 293 289 286 285 285 285 285 284 282 281 279 278 277 275 273 272 271 270 268 267 265 264 263
271 266 267 267 267 269 271 273 275 277 278 281 283 285 288 290 292 295 295 292 288 287 288 288 287 286 284 283 282 281 280 279 278 276 275 273 272 270 269 267 265 264
266 266 268 268 268 271 273 274 277 278 280 282 284 286 289 291 292 294 293 290 289 289 290 289 288 287 286 285 284 283 282 281 279 278 276 274 273 271 269 267 266 264